Flag for Austria Weather past 2 weeks in Leoben, Styria, Austria

Now
59 °F

Sprinkles. Broken clouds.


Feels Like: 59 °F
Forecast: 53 / 67 °F
Wind: 2 mph from North

Location: Zeltweg

Current Time: Jul 30, 2015 at 6:25:53 PM

Latest Report: Jul 30, 2015 at 5:50 PM


Visibility: 9 mi

Pressure: 30.01 "Hg (28.15 "Hg at 540m altitude)

Humidity: 82%

Dew point: 54 °F

Location of LeobenLocation

Historic Weather in Leoben — Graph

°F

Leoben temperature yesterday

Maximum temperature yesterday: 61 °F (at 2:50 PM)
Minimum temperature yesterday: 55 °F (at 6:50 AM)
Average temperature yesterday: 58 °F

Past Weeks' High & Low Weather Summary

 TemperatureHumidityPressure
High91 °F (Jul 17, 4:20 PM)100% (Jul 19, 5:50 AM)30.21 "Hg (Jul 19, 5:50 AM)
Low55 °F (Jul 26, 4:50 AM)31% (Jul 17, 3:50 PM)29.80 "Hg (Jul 27, 5:50 AM)
Average69 °F73%30.00 "Hg
* Reported Jul 15 4:20 PM — Jul 30 4:50 PM, Leoben, Weather by CustomWeather, © 2015

Note: Actual official high and low records may vary slightly from our data, if they occured in-between our weather recording intervals... More about our weather records

Advertising

Leoben weather history for previous 24 hours

 ConditionsComfort  
Time TempWeatherWind HumidityBarometerVisibility
4:50 PM
Thu, Jul 30
59 °FBroken clouds.2 mph82%30.01 "Hg12 mi
4:20 PM59 °FBroken clouds.2 mph82%30.01 "Hg9 mi
3:50 PM59 °FPartly sunny.2 mph77%30.01 "Hg9 mi
3:20 PM59 °FPartly sunny.1 mph77%30.01 "Hg12 mi
2:50 PM59 °FPartly sunny.2 mph72%30.01 "Hg12 mi
2:20 PM59 °FPartly sunny.3 mph77%30.01 "Hg9 mi
1:50 PM57 °FSprinkles. Partly sunny.6 mph77%30.01 "Hg9 mi
1:20 PM59 °FPartly sunny.5 mph72%30.01 "Hg12 mi
12:50 PM59 °FPartly sunny.6 mph72%30.01 "Hg16 mi
12:20 PM59 °FPartly sunny.5 mph72%30.01 "Hg16 mi
11:50 AM59 °FBroken clouds.5 mph68%30.01 "Hg16 mi
11:20 AM59 °FBroken clouds.3 mph77%30.01 "Hg16 mi
10:50 AM57 °FPartly sunny.2 mph77%30.01 "Hg16 mi
10:20 AM57 °FSprinkles. Partly sunny.2 mph82%30.01 "Hg12 mi
9:50 AM57 °FSprinkles. Partly sunny.2 mph77%30.01 "Hg12 mi
9:20 AM57 °FPartly sunny.3 mph88%30.01 "Hg16 mi
8:50 AM57 °FPartly sunny.3 mph94%30.01 "Hg12 mi
8:20 AM55 °FPartly sunny.2 mph94%30.01 "Hg9 mi
7:50 AM55 °FBroken clouds.2 mph88%30.01 "Hg9 mi
7:20 AM55 °FLight rain. Broken clouds.2 mph88%29.98 "Hg9 mi
6:50 AM55 °FSprinkles. Broken clouds.3 mph94%29.98 "Hg9 mi
5:50 AM57 °FSprinkles. Partly cloudy.3 mph94%29.98 "Hg9 mi
4:50 AM55 °FPassing clouds.3 mph100%29.95 "Hg6 mi
10:50 PM
Wed, Jul 29
57 °FSprinkles. Low clouds.1 mph94%29.95 "Hg5 mi
9:50 PM57 °FSprinkles. Passing clouds.No wind94%29.95 "Hg5 mi
8:50 PM57 °FRain showers. Broken clouds.5 mph94%29.92 "Hg4 mi
7:50 PM59 °FRain showers. Broken clouds.6 mph94%29.92 "Hg4 mi
7:20 PM59 °FRain showers. Broken clouds.6 mph94%29.92 "Hg3 mi
6:50 PM61 °FSprinkles. Broken clouds.5 mph88%29.89 "Hg6 mi
6:20 PM61 °FBroken clouds.2 mph94%29.89 "Hg9 mi
Weather by CustomWeather, © 2015

See weather overviewHow to use our weather pages